Regional Weather Roundup
Issued by NWS

Home | Current Version | Previous Version | Text Only | Print | Product List | Glossary On
Versions: 1 2 3 4 5 6 7 8 9 10 11 12 13 14 15 16 17 18 19 20 21 22 23 24 25 26 27 28 29 30 31 32 33 34 35 36 37 38 39 40 41 42 43 44 45 46 47 48 49 50
000
ASPQ40 PGUM 231312
RWRPQ
WEATHER ROUNDUP FOR THE MARIANAS AND MICRONESIA
NATIONAL WEATHER SERVICE TIYAN GU
1100 PM CHST MON JAN 23 2017

GUZ001>004-231400-
MARIANA ISLANDS-

CITY           SKY/WX    TMP DP  RH WIND       PRES   REMARKS
GUAM AIRPORT   CLEAR     79  73  83 NE10      29.98F
ANDERSEN AFB   MOCLDY    79  72  78 NE21      30.00S
ROTA AIRPORT   NOT AVBL
TINIAN AP      NOT AVBL
SAIPAN AP      PTCLDY    79  72  78 NE13G21   30.00S

$$

PMZ161-231400-
REPUBLIC OF PALAU-

CITY           SKY/WX    TMP DP  RH WIND       PRES   REMARKS
KOROR AP       CLOUDY    81  77  89 NE12G20   29.88R
KOROR WSO      CLOUDY    81  77  89 E7        29.89R

$$

PMZ171>174-231400-
FEDERATED STATES OF MICRONESIA-

CITY           SKY/WX    TMP DP  RH WIND       PRES   REMARKS
YAP AIRPORT    MOCLDY    79  75  89 NE10      29.89F
CHUUK AP       CLOUDY    84  77  79 NE12      29.83F HX  94
POHNPEI AP     NOT AVBL
POHNPEI WSO    CLOUDY    81  77  89 NE6       29.85F
KOSRAE AP      NOT AVBL

$$

PMZ181-231400-
REPUBLIC OF THE MARSHALL ISLANDS-

CITY           SKY/WX    TMP DP  RH WIND       PRES   REMARKS
KWAJALEIN AP   PTCLDY    81  77  89 E22G28    29.82F
MAJURO AP      NOT AVBL
MAJURO WSO     MOCLDY    82  77  83 NE16      29.81F HX  91

$$




USA.gov is the U.S. government's official web portal to all federal, state and local government web resources and services.